Home   Weather   Montgomery   Past weeks

Flag for USA Past Weather in Montgomery, Alabama, USA — Yesterday and Last 2 Weeks

Now
64 °F

Drizzle. Mostly cloudy.


Feels Like: 64 °F
Forecast: 61 / 74 °F
Wind: 3 mph from South

Location: Maxwell Air Force Base / Montgomery

Current Time: Jan 18, 2017 at 8:20:33 am

Latest Report: Jan 18, 2017 at 7:43 am


Visibility: 10 mi

Pressure: 30.17 "Hg

Humidity: 94%

Dew Point: 63 °F

Location of MontgomeryLocation

Past Weather in Montgomery — Graph

°F

Montgomery Temperature Yesterday

Maximum temperature yesterday: 77 °F (at 2:58 pm)
Minimum temperature yesterday: 54 °F (at 3:58 am)
Average temperature yesterday: 64 °F

High & Low Weather Summary for the Past Weeks

 TemperatureHumidityPressure
High78 °F (Jan 16, 2:58 pm)100% (Jan 3, 7:23 pm)30.81 "Hg (Jan 3, 7:23 pm)
Low20 °F (Jan 8, 6:58 am)28% (Jan 8, 2:58 pm)29.85 "Hg (Jan 3, 11:33 pm)
Average51 °F80%30.24 "Hg
* Reported Jan 3 6:38 am — Jan 18 6:58 am, Montgomery, Weather by CustomWeather, © 2017

Note: Actual official high and low records may vary slightly from our data, if they occured in-between our weather recording intervals... More about our weather records

Advertising

Montgomery Weather History for the Previous 24 Hours

Scroll right to see more
 ConditionsComfort  
Time TempWeatherWind HumidityBarometerVisibility
6:58 am
Wed, Jan 18
65 °FMostly cloudy.No wind93%30.16 "Hg10 mi
6:43 am64 °FMostly cloudy.No wind94%30.15 "Hg10 mi
6:38 am64 °FMostly cloudy.No wind94%30.15 "Hg10 mi
5:58 am66 °FOvercast.No wind89%30.14 "Hg10 mi
4:58 am65 °FPassing clouds.5 mph90%30.14 "Hg10 mi
3:58 am66 °FOvercast.8 mph89%30.14 "Hg10 mi
2:58 am66 °FOvercast.6 mph95%30.14 "Hg10 mi
2:38 am66 °FMostly cloudy.3 mph94%30.13 "Hg10 mi
1:58 am65 °FLow clouds.3 mph96%30.14 "Hg10 mi
1:28 am66 °FLow clouds.5 mph94%30.14 "Hg10 mi
12:58 am65 °FPassing clouds.5 mph95%30.14 "Hg10 mi
11:58 pm
Tue, Jan 17
65 °FClear.5 mph88%30.14 "Hg10 mi
10:58 pm65 °FPassing clouds.3 mph86%30.16 "Hg10 mi
9:58 pm68 °FMostly cloudy.3 mph78%30.17 "Hg10 mi
9:39 pm68 °FPassing clouds.6 mph78%30.18 "Hg10 mi
8:58 pm67 °FOvercast.6 mph78%30.17 "Hg10 mi
7:58 pm65 °FClear.6 mph79%30.16 "Hg10 mi
6:58 pm65 °FClear.5 mph78%30.16 "Hg10 mi
5:58 pm68 °FClear.3 mph72%30.16 "Hg10 mi
4:58 pm74 °FSunny.6 mph59%30.14 "Hg10 mi
3:58 pm77 °FScattered clouds.6 mph57%30.14 "Hg10 mi
2:58 pm77 °FPassing clouds.7 mph58%30.14 "Hg10 mi
1:58 pm77 °FPassing clouds.9 mph59%30.12 "Hg10 mi
1:03 pm75 °FScattered clouds.10 mph65%30.14 "Hg10 mi
8:58 am63 °FLow clouds.5 mph89%30.23 "Hg10 mi
Weather by CustomWeather, © 2017

See weather overviewHow to use our weather pages